Weather History for KROC - September, 2013

Change the Weather History Date:

Monday, September 23, 2013

  Actual Average Record
Temperature  
Mean Temperature 51 °F 59 °F  
Max Temperature 59 °F 69 °F 90 °F (1936)
Min Temperature 42 °F 49 °F 33 °F (1947)
Degree Days  
Heating Degree Days 14 7  
Month to date heating degree days 123 90  
Since 1 July heating degree days 141 124  
Cooling Degree Days 0 1  
Month to date cooling degree days 58 45  
Year to date cooling degree days 649 529  
Growing Degree Days 2 (Base 50)    
Moisture  
Dew Point 41 °F    
Average Humidity 68    
Maximum Humidity 89    
Minimum Humidity 47    
Precipitation  
Precipitation 0.00 in 0.12 in 1.34 in (2000)
Month to date precipitation 2.41 2.61  
Year to date precipitation 27.62 25.21  
Snow  
Snow 0.00 in 0.00 in T in (1950)
Month to date snowfall 0.0 0.0  
Since 1 July snowfall 0.0 0.0  
Since 1 September snowfall 0.0 0.0  
Snow Depth 0.00 in    
Sea Level Pressure  
Sea Level Pressure 30.12 in    
Wind  
Wind Speed 6 mph (NW)    
Max Wind Speed 16 mph    
Max Gust Speed 18 mph    
Visibility 10 miles    
Events      
T = Trace of Precipitation, MM = Missing Value Source: NWS Daily Summary

Daily Weather History Graph

Daily Weather History Graph

Search for Another Location

Airport or City:

Trip Planner

Search our weather history database for the weather conditions in past years. The results will help you decide how hot, cold, wet, or windy it might be!

Date:

Astronomy

Sep. 23, 2013 Rise Set
Actual Time 6:59 AM EDT 7:05 PM EDT
Civil Twilight 6:30 AM EDT 7:34 PM EDT
Nautical Twilight 5:57 AM EDT 8:07 PM EDT
Astronomical Twilight 5:23 AM EDT 8:41 PM EDT
Moon 9:29 PM EDT (9/23) 11:23 AM EDT (9/23)
Length of Visible Light 13h 03m
Length of Day
12h 06m
Waning Gibbous, 81% of the Moon is Illuminated
Sep 23
Waning Gibbous
Sep 26
Last Quarter
Oct 4
New
Oct 11
First Quarter
Oct 18
Full

Hourly Weather History & Observations

Time (EDT) Temp. Windchill Dew Point Humidity Pressure Visibility Wind Dir Wind Speed Gust Speed Precip Events Conditions
12:54 AM 51.1 °F - 43.0 °F 74% 30.04 in 10.0 mi WNW 5.8 mph - N/A   Overcast
1:54 AM 51.1 °F - 43.0 °F 74% 30.05 in 10.0 mi WNW 5.8 mph - N/A   Overcast
2:54 AM 51.1 °F - 44.1 °F 77% 30.06 in 10.0 mi NW 4.6 mph - N/A   Overcast
3:54 AM 51.1 °F - 43.0 °F 74% 30.07 in 10.0 mi NW 4.6 mph - N/A   Overcast
4:54 AM 51.1 °F - 43.0 °F 74% 30.08 in 10.0 mi NNW 5.8 mph - N/A   Overcast
5:54 AM 51.1 °F - 42.1 °F 71% 30.09 in 10.0 mi NNW 5.8 mph - N/A   Overcast
6:54 AM 46.9 °F - 39.9 °F 77% 30.11 in 10.0 mi NNW 4.6 mph - N/A   Scattered Clouds
7:54 AM 48.9 °F - 42.1 °F 77% 30.13 in 10.0 mi NW 3.5 mph - N/A   Partly Cloudy
8:54 AM 51.1 °F - 39.9 °F 66% 30.14 in 10.0 mi NNW 6.9 mph - N/A   Overcast
9:54 AM 53.1 °F - 39.9 °F 61% 30.15 in 10.0 mi North 13.8 mph - N/A   Overcast
10:54 AM 54.0 °F - 41.0 °F 62% 30.16 in 10.0 mi NNW 9.2 mph - N/A   Overcast
11:54 AM 53.1 °F - 39.9 °F 61% 30.17 in 10.0 mi NW 10.4 mph 17.3 mph N/A   Mostly Cloudy
12:54 PM 55.0 °F - 39.0 °F 55% 30.17 in 10.0 mi NNW 8.1 mph - N/A   Scattered Clouds
1:54 PM 57.0 °F - 39.9 °F 53% 30.15 in 10.0 mi North 10.4 mph - N/A   Partly Cloudy
2:54 PM 57.9 °F - 41.0 °F 53% 30.14 in 10.0 mi North 8.1 mph - N/A   Partly Cloudy
3:54 PM 59.0 °F - 41.0 °F 51% 30.13 in 10.0 mi NNW 10.4 mph - N/A   Partly Cloudy
4:54 PM 57.9 °F - 39.9 °F 51% 30.13 in 10.0 mi NW 10.4 mph - N/A   Partly Cloudy
5:54 PM 57.0 °F - 37.9 °F 49% 30.14 in 10.0 mi NNW 8.1 mph - N/A   Partly Cloudy
6:54 PM 55.0 °F - 39.9 °F 57% 30.14 in 10.0 mi NW 3.5 mph - N/A   Partly Cloudy
7:54 PM 50.0 °F - 42.1 °F 74% 30.14 in 10.0 mi Calm Calm - N/A   Clear
8:54 PM 46.9 °F - 42.1 °F 83% 30.15 in 10.0 mi WSW 3.5 mph - N/A   Clear
9:54 PM 46.0 °F - 43.0 °F 89% 30.14 in 10.0 mi Calm Calm - N/A   Clear
10:54 PM 44.1 °F 41.5 °F 41.0 °F 89% 30.15 in 10.0 mi SW 4.6 mph - N/A   Clear
11:54 PM 43.0 °F 40.3 °F 39.9 °F 89% 30.15 in 10.0 mi WSW 4.6 mph - N/A   Clear